When you browse on this site, cookies collect data to enhance your experience and personalize the content and advertising you see.
Visit our Privacy Policy to learn more. By continuing to use the site, you agree to this use of cookies and data.
  • In Deutschland
  • Länderverzeichnis
  • Für 7 Tage
  • Wassertemperatur
  • Satellitenkarten
  • Wetterkarte
  • Widgets
  • user-avatar
    Anmelden

    Stündliche Wetter Biskira

    Heute, 26 März, Dienstag

    Zeit Temperatur Niederschläge Wind Luftdruck Luftfeuchtigkeit
    00:00 +21°C° 0 mm 1 m/S 753 mmHg 37%
    01:00 +20°C° 0 mm 2 m/S 752 mmHg 37%
    02:00 +20°C° 0 mm 3 m/S 752 mmHg 37%
    03:00 +19°C° 0 mm 3 m/S 752 mmHg 37%
    04:00 +19°C° 0 mm 3 m/S 752 mmHg 38%
    05:00 +19°C° 0 mm 3 m/S 751 mmHg 38%
    06:00 +18°C° 0 mm 3 m/S 751 mmHg 39%
    07:00 +20°C° 0 mm 3 m/S 751 mmHg 37%
    08:00 +21°C° 0 mm 2 m/S 751 mmHg 35%
    09:00 +23°C° 0 mm 2 m/S 752 mmHg 33%
    10:00 +21°C° 0.2 mm 3 m/S 752 mmHg 36%
    11:00 +21°C° 0.2 mm 3 m/S 752 mmHg 39%
    12:00 +21°C° 0.2 mm 4 m/S 752 mmHg 41%
    13:00 +20°C° 0.6 mm 5 m/S 752 mmHg 46%
    14:00 +20°C° 0.6 mm 5 m/S 751 mmHg 50%
    15:00 +20°C° 0.6 mm 6 m/S 751 mmHg 54%
    16:00 +20°C° 0.1 mm 5 m/S 751 mmHg 54%
    17:00 +20°C° 0.1 mm 4 m/S 751 mmHg 53%
    18:00 +20°C° 0.1 mm 3 m/S 751 mmHg 52%
    19:00 +20°C° 0 mm 3 m/S 752 mmHg 53%
    20:00 +19°C° 0 mm 3 m/S 752 mmHg 54%
    21:00 +19°C° 0 mm 3 m/S 753 mmHg 55%
    22:00 +18°C° 0.5 mm 3 m/S 753 mmHg 58%
    23:00 +18°C° 0.5 mm 3 m/S 753 mmHg 60%

    Morgen, 27 März, Mittwoch

    Zeit Temperatur Niederschläge Wind Luftdruck Luftfeuchtigkeit
    00:00 +17°C° 0.5 mm 3 m/S 753 mmHg 63%
    01:00 +17°C° 0.8 mm 4 m/S 753 mmHg 64%
    02:00 +15°C° 0.8 mm 5 m/S 753 mmHg 65%
    03:00 +14°C° 0.8 mm 6 m/S 753 mmHg 66%
    04:00 +13°C° 0.7 mm 5 m/S 753 mmHg 65%
    05:00 +13°C° 0.7 mm 5 m/S 754 mmHg 65%
    06:00 +13°C° 0.7 mm 5 m/S 754 mmHg 64%
    07:00 +13°C° 0.7 mm 4 m/S 754 mmHg 62%
    08:00 +13°C° 0.7 mm 4 m/S 754 mmHg 60%
    09:00 +13°C° 0.7 mm 4 m/S 755 mmHg 59%
    10:00 +13°C° 0.3 mm 3 m/S 755 mmHg 58%
    11:00 +13°C° 0.3 mm 3 m/S 755 mmHg 57%
    12:00 +14°C° 0.3 mm 2 m/S 755 mmHg 57%
    13:00 +14°C° 0.9 mm 2 m/S 754 mmHg 59%
    14:00 +14°C° 0.9 mm 2 m/S 754 mmHg 62%
    15:00 +13°C° 0.9 mm 1 m/S 754 mmHg 65%
    16:00 +14°C° 0.1 mm 1 m/S 754 mmHg 64%
    17:00 +14°C° 0.1 mm 1 m/S 754 mmHg 63%
    18:00 +14°C° 0.1 mm 1 m/S 755 mmHg 63%
    19:00 +14°C° 0 mm 1 m/S 755 mmHg 64%
    20:00 +14°C° 0 mm 1 m/S 756 mmHg 65%
    21:00 +13°C° 0 mm 1 m/S 756 mmHg 66%
    22:00 +13°C° 0 mm 1 m/S 756 mmHg 65%
    23:00 +13°C° 0 mm 1 m/S 756 mmHg 64%

    übermorgen, 28 März, Donnerstag

    Zeit Temperatur Niederschläge Wind Luftdruck Luftfeuchtigkeit
    00:00 +13°C° 0 mm 2 m/S 756 mmHg 63%
    01:00 +13°C° 0 mm 2 m/S 756 mmHg 62%
    02:00 +13°C° 0 mm 2 m/S 756 mmHg 61%
    03:00 +12°C° 0 mm 2 m/S 756 mmHg 60%
    04:00 +12°C° 0 mm 2 m/S 756 mmHg 59%
    05:00 +12°C° 0 mm 2 m/S 757 mmHg 59%
    06:00 +12°C° 0 mm 2 m/S 757 mmHg 59%
    07:00 +13°C° 0 mm 2 m/S 757 mmHg 54%
    08:00 +15°C° 0 mm 2 m/S 758 mmHg 49%
    09:00 +16°C° 0 mm 1 m/S 758 mmHg 44%
    10:00 +18°C° 0 mm 1 m/S 758 mmHg 42%
    11:00 +18°C° 0 mm 1 m/S 758 mmHg 40%
    12:00 +19°C° 0 mm 1 m/S 757 mmHg 38%
    13:00 +19°C° 0 mm 1 m/S 757 mmHg 37%
    14:00 +20°C° 0 mm 1 m/S 757 mmHg 35%
    15:00 +20°C° 0 mm 1 m/S 756 mmHg 34%
    16:00 +20°C° 0 mm 1 m/S 756 mmHg 36%
    17:00 +19°C° 0 mm 1 m/S 756 mmHg 38%
    18:00 +19°C° 0 mm 1 m/S 757 mmHg 40%
    19:00 +19°C° 0 mm 1 m/S 757 mmHg 42%
    20:00 +18°C° 0 mm 1 m/S 758 mmHg 44%
    21:00 +16°C° 0 mm 1 m/S 758 mmHg 46%
    22:00 +16°C° 0 mm 1 m/S 758 mmHg 46%
    23:00 +16°C° 0 mm 2 m/S 758 mmHg 46%

    29 März, Freitag

    Zeit Temperatur Niederschläge Wind Luftdruck Luftfeuchtigkeit
    00:00 +16°C° 0 mm 2 m/S 758 mmHg 47%
    01:00 +16°C° 0 mm 2 m/S 758 mmHg 49%
    02:00 +15°C° 0 mm 2 m/S 758 mmHg 51%
    03:00 +15°C° 0 mm 2 m/S 758 mmHg 53%
    04:00 +15°C° 0 mm 2 m/S 759 mmHg 57%
    05:00 +14°C° 0 mm 2 m/S 759 mmHg 61%
    06:00 +14°C° 0 mm 2 m/S 759 mmHg 65%
    07:00 +15°C° 0 mm 2 m/S 759 mmHg 61%
    08:00 +16°C° 0 mm 2 m/S 759 mmHg 58%
    09:00 +17°C° 0 mm 2 m/S 759 mmHg 54%
    10:00 +17°C° 0 mm 2 m/S 759 mmHg 52%
    11:00 +18°C° 0 mm 2 m/S 759 mmHg 49%
    12:00 +19°C° 0 mm 2 m/S 759 mmHg 46%
    13:00 +19°C° 0 mm 2 m/S 758 mmHg 44%
    14:00 +20°C° 0 mm 2 m/S 758 mmHg 41%
    15:00 +21°C° 0 mm 1 m/S 758 mmHg 38%
    16:00 +21°C° 0 mm 1 m/S 758 mmHg 38%
    17:00 +21°C° 0 mm 1 m/S 758 mmHg 38%
    18:00 +21°C° 0 mm 1 m/S 758 mmHg 39%
    19:00 +20°C° 0 mm 1 m/S 758 mmHg 41%
    20:00 +20°C° 0 mm 1 m/S 759 mmHg 43%
    21:00 +19°C° 0 mm 1 m/S 759 mmHg 45%
    22:00 +19°C° 0 mm 1 m/S 759 mmHg 47%
    23:00 +18°C° 0 mm 1 m/S 759 mmHg 48%

    30 März, Samstag

    Zeit Temperatur Niederschläge Wind Luftdruck Luftfeuchtigkeit
    00:00 +18°C° 0 mm 1 m/S 759 mmHg 50%
    01:00 +16°C° 0 mm 1 m/S 759 mmHg 52%
    02:00 +16°C° 0 mm 1 m/S 759 mmHg 54%
    03:00 +15°C° 0 mm 1 m/S 759 mmHg 55%
    04:00 +15°C° 0 mm 1 m/S 759 mmHg 57%
    05:00 +15°C° 0 mm 2 m/S 759 mmHg 58%
    06:00 +14°C° 0 mm 3 m/S 759 mmHg 59%
    07:00 +15°C° 0 mm 4 m/S 759 mmHg 57%
    08:00 +15°C° 0 mm 4 m/S 760 mmHg 55%
    09:00 +16°C° 0 mm 5 m/S 760 mmHg 54%
    10:00 +18°C° 0 mm 4 m/S 759 mmHg 50%
    11:00 +19°C° 0 mm 4 m/S 759 mmHg 47%
    12:00 +20°C° 0 mm 3 m/S 758 mmHg 44%
    13:00 +20°C° 0 mm 3 m/S 758 mmHg 41%
    14:00 +20°C° 0 mm 3 m/S 757 mmHg 39%
    15:00 +21°C° 0 mm 2 m/S 757 mmHg 37%
    16:00 +21°C° 0 mm 2 m/S 756 mmHg 37%
    17:00 +20°C° 0 mm 2 m/S 756 mmHg 38%
    18:00 +20°C° 0 mm 2 m/S 756 mmHg 38%
    19:00 +20°C° 0 mm 2 m/S 756 mmHg 40%
    20:00 +19°C° 0 mm 2 m/S 757 mmHg 42%
    21:00 +19°C° 0 mm 2 m/S 757 mmHg 44%
    22:00 +18°C° 0 mm 2 m/S 757 mmHg 45%
    23:00 +18°C° 0 mm 2 m/S 756 mmHg 47%

    31 März, Sonntag

    Zeit Temperatur Niederschläge Wind Luftdruck Luftfeuchtigkeit
    00:00 +17°C° 0 mm 2 m/S 756 mmHg 48%
    01:00 +17°C° 0 mm 2 m/S 756 mmHg 49%
    02:00 +16°C° 0 mm 2 m/S 755 mmHg 50%
    03:00 +16°C° 0 mm 2 m/S 755 mmHg 51%
    04:00 +16°C° 0 mm 2 m/S 755 mmHg 49%
    05:00 +16°C° 0 mm 2 m/S 755 mmHg 48%
    06:00 +16°C° 0 mm 2 m/S 755 mmHg 47%
    07:00 +17°C° 0 mm 3 m/S 754 mmHg 44%
    08:00 +18°C° 0 mm 4 m/S 754 mmHg 41%
    09:00 +19°C° 0 mm 5 m/S 754 mmHg 38%
    10:00 +20°C° 0 mm 4 m/S 754 mmHg 36%
    11:00 +21°C° 0 mm 4 m/S 753 mmHg 34%
    12:00 +21°C° 0 mm 4 m/S 753 mmHg 33%
    13:00 +22°C° 0 mm 4 m/S 752 mmHg 32%
    14:00 +22°C° 0 mm 4 m/S 752 mmHg 32%
    15:00 +22°C° 0 mm 4 m/S 751 mmHg 31%
    16:00 +21°C° 0 mm 4 m/S 751 mmHg 33%
    17:00 +21°C° 0 mm 3 m/S 751 mmHg 35%
    18:00 +20°C° 0 mm 3 m/S 751 mmHg 37%
    19:00 +20°C° 0 mm 3 m/S 751 mmHg 38%
    20:00 +20°C° 0 mm 3 m/S 752 mmHg 39%
    21:00 +19°C° 0 mm 3 m/S 752 mmHg 40%
    22:00 +19°C° 0.1 mm 2 m/S 752 mmHg 42%
    23:00 +18°C° 0.1 mm 2 m/S 752 mmHg 44%
    Mehr zeigen